BAW253 MYNN-MBPV

Flight info

Callsign BAW253
Flight time 1h 1m
Altitude 39000
Route ZUMMA DCT SOLEI
Aircraft B77W/H-SDE1E2E3FGHIJ2J3J4J5M1RWXY/LB1D1

Departure

Time 2026-04-22 18:54
Airport Lynden Pindling International Airport (MYNN)

Arrival

Time 2026-04-22 19:55
Airport Providenciales International Airport (MBPV)
Time Latitude Longitude Altitude Speed Heading
2026-04-22 18:34 25.04871 -77.46830 25 ft 0 kts 146°
2026-04-22 18:46 25.04889 -77.46843 26 ft 4 kts 146°
2026-04-22 18:46 25.04911 -77.46859 24 ft 4 kts 152°
2026-04-22 18:47 25.04934 -77.46868 23 ft 4 kts 196°
2026-04-22 18:47 25.04944 -77.46861 25 ft 1 kts 245°
2026-04-22 18:47 25.04945 -77.46858 25 ft 0 kts 245°
2026-04-22 18:50 25.04944 -77.46859 25 ft 1 kts 245°
2026-04-22 18:51 25.04941 -77.46868 26 ft 2 kts 245°
2026-04-22 18:51 25.04930 -77.46893 26 ft 6 kts 245°
2026-04-22 18:51 25.04907 -77.46952 24 ft 10 kts 253°
2026-04-22 18:51 25.04926 -77.47021 25 ft 10 kts 306°
2026-04-22 18:52 25.04973 -77.47081 26 ft 11 kts 313°
2026-04-22 18:52 25.05026 -77.47142 27 ft 11 kts 314°
2026-04-22 18:52 25.05083 -77.47206 27 ft 12 kts 313°
2026-04-22 18:52 25.05142 -77.47277 27 ft 13 kts 312°
2026-04-22 18:53 25.05204 -77.47350 25 ft 13 kts 300°
2026-04-22 18:53 25.05200 -77.47448 27 ft 13 kts 256°
2026-04-22 18:53 25.05135 -77.47498 27 ft 14 kts 162°
2026-04-22 18:53 25.05019 -77.47386 28 ft 58 kts 134°
2026-04-22 18:54 25.04447 -77.46696 123 ft 178 kts 127°
2026-04-22 18:54 25.03469 -77.45551 1329 ft 210 kts 131°
2026-04-22 18:54 25.02279 -77.44555 2905 ft 227 kts 142°
2026-04-22 18:54 25.00878 -77.43645 3845 ft 244 kts 146°
2026-04-22 18:55 24.99371 -77.42718 4971 ft 252 kts 147°
2026-04-22 18:55 24.98354 -77.42094 5755 ft 256 kts 148°
2026-04-22 18:55 24.96231 -77.40783 7139 ft 269 kts 149°
2026-04-22 18:55 24.94578 -77.39754 8163 ft 278 kts 150°
2026-04-22 18:56 24.92862 -77.38677 9142 ft 289 kts 150°
2026-04-22 18:56 24.91077 -77.37552 10101 ft 302 kts 151°
2026-04-22 18:56 24.89833 -77.36765 10658 ft 312 kts 151°
2026-04-22 18:56 24.87859 -77.35515 11038 ft 344 kts 151°
2026-04-22 18:57 24.85691 -77.34139 11513 ft 370 kts 152°
2026-04-22 18:57 24.83448 -77.32711 12600 ft 373 kts 151°
2026-04-22 18:57 24.81191 -77.31271 13793 ft 378 kts 152°
2026-04-22 18:57 24.78895 -77.29806 14779 ft 384 kts 151°
2026-04-22 18:58 24.76563 -77.28319 15764 ft 391 kts 152°
2026-04-22 18:58 24.74180 -77.26802 16661 ft 400 kts 152°
2026-04-22 18:58 24.71756 -77.25258 17685 ft 406 kts 153°
2026-04-22 18:58 24.69297 -77.23693 18666 ft 411 kts 153°
2026-04-22 18:59 24.66802 -77.22104 19497 ft 418 kts 153°
2026-04-22 18:59 24.64259 -77.20486 20283 ft 426 kts 153°
2026-04-22 18:59 24.61701 -77.18861 21064 ft 434 kts 153°
2026-04-22 18:59 24.59079 -77.17160 21823 ft 442 kts 149°
2026-04-22 19:00 24.56602 -77.15089 22541 ft 454 kts 140°
2026-04-22 19:00 24.54360 -77.12601 23301 ft 463 kts 133°
2026-04-22 19:00 24.52393 -77.09756 23969 ft 471 kts 126°
2026-04-22 19:00 24.50510 -77.06777 24582 ft 478 kts 126°
2026-04-22 19:01 24.48598 -77.03702 25255 ft 484 kts 126°
2026-04-22 19:01 24.46716 -77.00675 25894 ft 489 kts 126°
2026-04-22 19:01 24.44780 -76.97580 26534 ft 495 kts 127°
2026-04-22 19:01 24.42812 -76.94456 27139 ft 500 kts 127°
2026-04-22 19:02 24.40812 -76.91304 27739 ft 506 kts 127°
2026-04-22 19:02 24.38784 -76.88122 28335 ft 512 kts 128°
2026-04-22 19:02 24.36729 -76.84906 28895 ft 517 kts 128°
2026-04-22 19:02 24.34650 -76.81658 29471 ft 523 kts 128°
2026-04-22 19:03 24.32549 -76.78379 30026 ft 528 kts 128°
2026-04-22 19:03 24.30429 -76.75070 30523 ft 533 kts 128°
2026-04-22 19:03 24.28288 -76.71730 30943 ft 538 kts 128°
2026-04-22 19:03 24.26127 -76.68359 31330 ft 543 kts 128°
2026-04-22 19:04 24.23948 -76.64962 31693 ft 548 kts 128°
2026-04-22 19:04 24.21746 -76.61531 32053 ft 551 kts 128°
2026-04-22 19:04 24.19537 -76.58091 32534 ft 553 kts 128°
2026-04-22 19:04 24.17324 -76.54644 33053 ft 553 kts 128°
2026-04-22 19:05 24.15112 -76.51203 33550 ft 553 kts 128°
2026-04-22 19:05 24.12893 -76.47754 34025 ft 554 kts 128°
2026-04-22 19:05 24.10669 -76.44301 34430 ft 555 kts 129°
2026-04-22 19:05 24.08443 -76.40848 34872 ft 555 kts 129°
2026-04-22 19:06 24.06222 -76.37403 35364 ft 553 kts 129°
2026-04-22 19:06 24.04005 -76.33967 35825 ft 552 kts 129°
2026-04-22 19:06 24.01791 -76.30538 36271 ft 551 kts 129°
2026-04-22 19:07 23.97367 -76.23697 37100 ft 551 kts 129°
2026-04-22 19:07 23.95155 -76.20280 37502 ft 550 kts 129°
2026-04-22 19:07 23.92945 -76.16868 37921 ft 549 kts 129°
2026-04-22 19:07 23.90737 -76.13461 38318 ft 549 kts 130°
2026-04-22 19:08 23.88531 -76.10061 38693 ft 549 kts 130°
2026-04-22 19:08 23.86324 -76.06660 39014 ft 548 kts 130°
2026-04-22 19:08 23.84107 -76.03249 39107 ft 553 kts 130°
2026-04-22 19:09 23.79656 -75.96404 39138 ft 551 kts 130°
2026-04-22 19:09 23.75252 -75.89632 39137 ft 544 kts 130°
2026-04-22 19:10 23.70867 -75.82904 39139 ft 543 kts 130°
2026-04-22 19:10 23.66490 -75.76202 39135 ft 542 kts 130°
2026-04-22 19:11 23.62109 -75.69501 39146 ft 543 kts 130°
2026-04-22 19:11 23.57723 -75.62801 39143 ft 543 kts 130°
2026-04-22 19:12 23.53355 -75.56136 39131 ft 544 kts 130°
2026-04-22 19:12 23.48951 -75.49424 39135 ft 545 kts 130°
2026-04-22 19:13 23.44539 -75.42709 39138 ft 545 kts 130°
2026-04-22 19:13 23.40117 -75.35989 39132 ft 546 kts 130°
2026-04-22 19:14 23.35690 -75.29270 39109 ft 546 kts 130°
2026-04-22 19:14 23.31262 -75.22557 39123 ft 546 kts 130°
2026-04-22 19:15 23.27581 -75.16983 39117 ft 546 kts 130°
2026-04-22 19:15 23.22403 -75.09154 39121 ft 545 kts 130°
2026-04-22 19:16 23.17971 -75.02461 39119 ft 545 kts 130°
2026-04-22 19:16 23.13541 -74.95781 39117 ft 545 kts 130°
2026-04-22 19:17 23.09113 -74.89112 39120 ft 544 kts 130°
2026-04-22 19:17 23.04715 -74.82497 39116 ft 544 kts 130°
2026-04-22 19:18 23.00286 -74.75843 39111 ft 543 kts 130°
2026-04-22 19:18 22.95866 -74.69212 39107 ft 541 kts 130°
2026-04-22 19:19 22.91453 -74.62600 39105 ft 540 kts 130°
2026-04-22 19:19 22.87061 -74.56024 38946 ft 534 kts 130°
2026-04-22 19:19 22.84892 -74.52778 38463 ft 530 kts 130°
2026-04-22 19:20 22.82735 -74.49554 37939 ft 527 kts 130°
2026-04-22 19:20 22.80590 -74.46352 37453 ft 523 kts 130°
2026-04-22 19:20 22.78462 -74.43176 36990 ft 519 kts 130°
2026-04-22 19:20 22.76348 -74.40023 36556 ft 515 kts 130°
2026-04-22 19:21 22.74251 -74.36898 36127 ft 511 kts 130°
2026-04-22 19:21 22.72166 -74.33793 35684 ft 508 kts 130°
2026-04-22 19:21 22.70095 -74.30709 35257 ft 505 kts 130°
2026-04-22 19:21 22.68037 -74.27648 34843 ft 501 kts 130°
2026-04-22 19:22 22.65990 -74.24605 34419 ft 498 kts 130°
2026-04-22 19:22 22.63957 -74.21584 34014 ft 495 kts 130°
2026-04-22 19:22 22.61936 -74.18583 33563 ft 491 kts 130°
2026-04-22 19:22 22.59936 -74.15612 33191 ft 486 kts 130°
2026-04-22 19:23 22.57955 -74.12673 32793 ft 482 kts 130°
2026-04-22 19:23 22.55987 -74.09755 32392 ft 478 kts 130°
2026-04-22 19:23 22.54031 -74.06858 31949 ft 475 kts 130°
2026-04-22 19:23 22.52087 -74.03980 31536 ft 472 kts 130°
2026-04-22 19:24 22.50155 -74.01119 31142 ft 469 kts 130°
2026-04-22 19:24 22.48237 -73.98282 30765 ft 466 kts 130°
2026-04-22 19:24 22.46332 -73.95465 30397 ft 462 kts 130°
2026-04-22 19:24 22.44440 -73.92668 30001 ft 459 kts 130°
2026-04-22 19:25 22.42562 -73.89895 29572 ft 456 kts 129°
2026-04-22 19:25 22.40696 -73.87139 29168 ft 452 kts 129°
2026-04-22 19:25 22.38828 -73.84385 28233 ft 461 kts 129°
2026-04-22 19:25 22.36890 -73.81536 26902 ft 480 kts 129°
2026-04-22 19:26 22.34910 -73.78623 26349 ft 480 kts 128°
2026-04-22 19:26 22.32929 -73.75704 25718 ft 485 kts 128°
2026-04-22 19:26 22.30914 -73.72737 25092 ft 496 kts 128°
2026-04-22 19:26 22.28854 -73.69705 24422 ft 503 kts 128°
2026-04-22 19:27 22.26789 -73.66666 23743 ft 500 kts 128°
2026-04-22 19:27 22.24740 -73.63649 22958 ft 496 kts 127°
2026-04-22 19:27 22.22710 -73.60662 22274 ft 490 kts 127°
2026-04-22 19:27 22.20704 -73.57715 21598 ft 484 kts 128°
2026-04-22 19:28 22.18724 -73.54807 20960 ft 477 kts 128°
2026-04-22 19:28 22.16772 -73.51943 20329 ft 471 kts 128°
2026-04-22 19:28 22.14838 -73.49107 19705 ft 466 kts 128°
2026-04-22 19:28 22.12935 -73.46319 19123 ft 459 kts 128°
2026-04-22 19:29 22.11053 -73.43563 18597 ft 452 kts 128°
2026-04-22 19:29 22.09198 -73.40848 17881 ft 448 kts 128°
2026-04-22 19:29 22.07356 -73.38154 17185 ft 444 kts 128°
2026-04-22 19:29 22.05581 -73.35555 16510 ft 423 kts 129°
2026-04-22 19:30 22.04427 -73.33868 16093 ft 421 kts 129°
2026-04-22 19:30 22.02133 -73.30519 15315 ft 417 kts 128°
2026-04-22 19:30 22.00418 -73.28015 14728 ft 414 kts 129°
2026-04-22 19:30 21.98710 -73.25523 14125 ft 412 kts 128°
2026-04-22 19:31 21.97012 -73.23048 13490 ft 410 kts 129°
2026-04-22 19:31 21.95322 -73.20582 12867 ft 407 kts 129°
2026-04-22 19:31 21.93645 -73.18139 12270 ft 404 kts 129°
2026-04-22 19:31 21.91983 -73.15719 11732 ft 399 kts 128°
2026-04-22 19:32 21.90365 -73.13360 11109 ft 378 kts 128°
2026-04-22 19:32 21.88886 -73.11200 10937 ft 340 kts 128°
2026-04-22 19:32 21.87550 -73.09256 10782 ft 307 kts 128°
2026-04-22 19:32 21.86319 -73.07466 10670 ft 291 kts 127°
2026-04-22 19:33 21.85133 -73.05744 10555 ft 282 kts 127°
2026-04-22 19:33 21.83983 -73.04074 10436 ft 273 kts 127°
2026-04-22 19:33 21.82864 -73.02448 10334 ft 269 kts 127°
2026-04-22 19:33 21.81876 -73.00717 10216 ft 279 kts 109°
2026-04-22 19:34 21.81580 -72.98618 10141 ft 291 kts 93°
2026-04-22 19:34 21.81459 -72.96413 9911 ft 299 kts 93°
2026-04-22 19:34 21.81336 -72.94169 9568 ft 300 kts 93°
2026-04-22 19:34 21.81210 -72.91933 9243 ft 298 kts 93°
2026-04-22 19:35 21.81082 -72.89718 8940 ft 295 kts 93°
2026-04-22 19:35 21.80952 -72.87531 8632 ft 292 kts 93°
2026-04-22 19:35 21.80865 -72.86098 8466 ft 285 kts 94°
2026-04-22 19:35 21.80698 -72.83380 7997 ft 259 kts 94°
2026-04-22 19:36 21.80582 -72.81512 7714 ft 241 kts 93°
2026-04-22 19:36 21.80470 -72.79726 7494 ft 245 kts 94°
2026-04-22 19:36 21.80352 -72.77829 7234 ft 262 kts 94°
2026-04-22 19:36 21.80227 -72.75852 6945 ft 267 kts 94°
2026-04-22 19:37 21.80101 -72.73866 6653 ft 265 kts 94°
2026-04-22 19:37 21.79975 -72.71889 6345 ft 264 kts 94°
2026-04-22 19:37 21.79850 -72.69923 6038 ft 262 kts 94°
2026-04-22 19:37 21.79725 -72.67973 5753 ft 260 kts 93°
2026-04-22 19:38 21.79602 -72.66047 5562 ft 254 kts 93°
2026-04-22 19:38 21.79480 -72.64148 5200 ft 255 kts 93°
2026-04-22 19:38 21.79358 -72.62245 4904 ft 255 kts 93°
2026-04-22 19:38 21.79236 -72.60352 4610 ft 253 kts 93°
2026-04-22 19:39 21.79114 -72.58468 4323 ft 252 kts 92°
2026-04-22 19:39 21.78994 -72.56611 4082 ft 249 kts 92°
2026-04-22 19:39 21.78875 -72.54756 3763 ft 248 kts 92°
2026-04-22 19:39 21.78756 -72.52920 3552 ft 241 kts 92°
2026-04-22 19:40 21.78642 -72.51180 3427 ft 228 kts 91°
2026-04-22 19:40 21.78536 -72.49559 3304 ft 207 kts 92°
2026-04-22 19:40 21.78436 -72.48052 3214 ft 197 kts 91°
2026-04-22 19:40 21.78343 -72.46622 3120 ft 186 kts 91°
2026-04-22 19:41 21.78270 -72.45278 3030 ft 176 kts 89°
2026-04-22 19:41 21.78208 -72.43983 2832 ft 171 kts 89°
2026-04-22 19:41 21.78148 -72.42720 2629 ft 167 kts 88°
2026-04-22 19:41 21.78108 -72.41901 2482 ft 165 kts 88°
2026-04-22 19:42 21.78050 -72.40685 2264 ft 160 kts 88°
2026-04-22 19:42 21.77991 -72.39487 2082 ft 161 kts 87°
2026-04-22 19:42 21.77932 -72.38270 1868 ft 163 kts 86°
2026-04-22 19:42 21.77873 -72.37061 1657 ft 160 kts 86°
2026-04-22 19:43 21.77760 -72.34730 1265 ft 150 kts 88°
2026-04-22 19:43 21.77704 -72.33574 1064 ft 157 kts 87°
2026-04-22 19:43 21.77648 -72.32468 962 ft 143 kts 87°
2026-04-22 19:44 21.77580 -72.31448 655 ft 125 kts 85°
2026-04-22 19:44 21.77521 -72.30468 526 ft 136 kts 82°
2026-04-22 19:44 21.77504 -72.29448 369 ft 136 kts 86°
2026-04-22 19:44 21.77454 -72.28422 120 ft 138 kts 87°
2026-04-22 19:45 21.77394 -72.27356 63 ft 145 kts 84°
2026-04-22 19:45 21.77345 -72.26153 960 ft 184 kts 85°
2026-04-22 19:45 21.77243 -72.24901 1985 ft 141 kts 91°
2026-04-22 19:45 21.77167 -72.23727 1639 ft 158 kts 86°
2026-04-22 19:46 21.77128 -72.22603 1594 ft 148 kts 86°
2026-04-22 19:46 21.77102 -72.21466 1998 ft 159 kts 85°
2026-04-22 19:46 21.77089 -72.20265 1937 ft 160 kts 86°
2026-04-22 19:46 21.76796 -72.19117 1963 ft 172 kts 121°
2026-04-22 19:47 21.75731 -72.18354 2041 ft 203 kts 160°
2026-04-22 19:47 21.74288 -72.18331 2057 ft 216 kts 182°
2026-04-22 19:47 21.72785 -72.18555 2033 ft 218 kts 182°
2026-04-22 19:47 21.71294 -72.18783 2001 ft 216 kts 182°
2026-04-22 19:48 21.69833 -72.19135 2000 ft 219 kts 204°
2026-04-22 19:48 21.68682 -72.20228 2016 ft 226 kts 241°
2026-04-22 19:48 21.68249 -72.21812 2020 ft 222 kts 271°
2026-04-22 19:48 21.68174 -72.23478 2035 ft 225 kts 272°
2026-04-22 19:49 21.68113 -72.25152 2074 ft 223 kts 272°
2026-04-22 19:49 21.68066 -72.26824 2062 ft 221 kts 273°
2026-04-22 19:49 21.68025 -72.28481 1933 ft 222 kts 272°
2026-04-22 19:49 21.67985 -72.30116 1733 ft 215 kts 272°
2026-04-22 19:50 21.67945 -72.31708 1489 ft 211 kts 272°
2026-04-22 19:50 21.67915 -72.33222 1385 ft 199 kts 273°
2026-04-22 19:50 21.67875 -72.34714 1334 ft 203 kts 273°
2026-04-22 19:50 21.67993 -72.36177 1301 ft 190 kts 297°
2026-04-22 19:51 21.68797 -72.37191 1318 ft 176 kts 336°
2026-04-22 19:51 21.69912 -72.37716 1332 ft 176 kts 344°
2026-04-22 19:51 21.71008 -72.38244 1246 ft 168 kts 343°
2026-04-22 19:51 21.72057 -72.38709 1074 ft 158 kts 353°
2026-04-22 19:52 21.73079 -72.38758 915 ft 137 kts 24°
2026-04-22 19:52 21.73831 -72.38230 945 ft 131 kts 38°
2026-04-22 19:52 21.74599 -72.37693 908 ft 132 kts 36°
2026-04-22 19:52 21.75188 -72.36979 920 ft 129 kts 57°
2026-04-22 19:53 21.75657 -72.36124 920 ft 135 kts 54°
2026-04-22 19:53 21.76153 -72.35277 910 ft 133 kts 55°
2026-04-22 19:53 21.76570 -72.34426 818 ft 126 kts 62°
2026-04-22 19:53 21.76974 -72.33568 802 ft 127 kts 60°
2026-04-22 19:54 21.77309 -72.32671 679 ft 133 kts 71°
2026-04-22 19:54 21.77480 -72.31702 479 ft 131 kts 72°
2026-04-22 19:54 21.77548 -72.30698 440 ft 141 kts 84°
2026-04-22 19:54 21.77480 -72.29641 351 ft 142 kts 89°
2026-04-22 19:55 21.77444 -72.28587 165 ft 141 kts 83°
2026-04-22 19:55 21.77401 -72.27544 44 ft 133 kts 84°
2026-04-22 19:55 21.77364 -72.26695 41 ft 88 kts 93°
2026-04-22 19:55 21.77341 -72.26238 41 ft 39 kts 92°
2026-04-22 19:56 21.77327 -72.25938 43 ft 39 kts 94°
2026-04-22 19:56 21.77314 -72.25694 41 ft 26 kts 94°
2026-04-22 19:56 21.77330 -72.25550 42 ft 5 kts 121°
2026-04-22 19:56 21.77306 -72.25555 42 ft 4 kts 237°
2026-04-22 19:57 21.77305 -72.25593 41 ft 6 kts 270°
2026-04-22 19:57 21.77308 -72.25646 39 ft 8 kts 274°
2026-04-22 19:57 21.77314 -72.25732 41 ft 18 kts 274°
2026-04-22 19:57 21.77323 -72.25923 38 ft 33 kts 272°
2026-04-22 19:58 21.77340 -72.26195 41 ft 37 kts 274°
2026-04-22 19:58 21.77356 -72.26464 41 ft 35 kts 272°
2026-04-22 19:58 21.77366 -72.26723 41 ft 34 kts 272°
2026-04-22 19:58 21.77377 -72.26972 43 ft 33 kts 272°
2026-04-22 19:59 21.77389 -72.27213 42 ft 32 kts 272°
2026-04-22 20:00 21.77626 -72.27434 47 ft 2 kts 30°
2026-04-22 20:00 21.77638 -72.27425 47 ft 2 kts 31°
2026-04-22 20:01 21.77650 -72.27418 47 ft 0 kts 32°